Zurück zum Katalog

STARLINK-31116

AktivKommunikationVLEO
NORAD 58947·PAYLOAD·🇺🇸 United States

Gestartet Feb 10, 2024 von Vandenberg Space Force Base

Loading…

Nächste Überflüge (nächste 24 Stunden)

TLE

AktuellSource: CelesTrak SupGP

Epoche: Sep 14, 2026, 22:37 UTC

1 58947C 24027S   26257.94284722 -.00056854  00000+0 -18282-2 0  2577
2 58947  53.1577 149.1261 0001369  85.9035 289.6800 15.31730965    10

Verfolge STARLINK-31116 in Echtzeit mit AllMySat

Download on the App Store